Timeline UpdatesTrip UpdatesNews PostsPvt Posts♥♥Travel TipsAdmin PostsConv PostsFollowed PostsChat RequestsBlog PostsPNR Posts

Disclaimer
Search
 
 
Sat Dec 20, 2014 01:48:34 ISTHomeTrainsΣChainsAtlasPNRForumGalleryNewsFAQTripsMembersLoginFeedback
No Recent News for this Train
Other Trains in the News **new
Latest...
..
Tue Aug 26, 2014 (08:50PM)
⇐ Return Journey: Train# 13133

13134/Varanasi - Sealdah (Upper India) Express

Time-Table HAS CHANGED.
Sep 03 2014 (5:12PM)
Change Departure Station:
Change Arrival Station:
Post a Train Travel TipPost a Train Travel Tip **new
Post a Comment/Question/Picture/VideoPost a Comment/Question/Picture/Video
Pantry/Catering
✕ NO Pantry Car
✕ NO Catering
RSA - Rake Sharing
13119/13120 Sealdah - Old Delhi Express
Rake/Coach Composition
LOCO-SLR-GS-GS-S4-S3-S2-S1-B1-GS-GS-GS-GS-GS-GS-SLR
Loco
BWN WDM-3A
News    PNR    Forum    Time-Table    Availability    Fare Chart    Map    Arr/Dep History    Trips    Gallery    ΣChains    X/O    Timeline    
Travel Time: 9h 20m    34 halts    Distance: 302 km    Avg Speed: 32 km/hr
Type: Mail/Express
Zone: ER/Eastern
Departs @ 08:40 (Avg on time)
Platform# 4
 MT TFS
Varanasi Junction/BSB 
Arrives @ 18:00 (Avg 1h 58m late)
Platform# ???
 MT TFS
Punarakh/PHK 

34 halts. 72 intermediate Stations between Varanasi Junction and Punarakh

Show ALL intermediate Stations  Show Old Time-Table

#TrkCodeStation NameX/OArrivesAvgDepartsAvgHaltPFDay#KmSpeedElevZoneAddress
1/==/BSBVaranasi Junction (9)»  -08:40+0410.01882mNRVaranasi 221002, Uttar Pradesh
2/==/MGSMughal Sarai Junction (8)X  09:35+109:50+215m--116.44283mECRDistt: Chandauli Pin 232101, Uttar Pradesh
3/==/SLDSakaldiha (2)X  10:16+310:18+62m--134.68781mECRState Highway 69, Uttar Pradesh
4/==/ZNAZamania (2)  10:36+1910:38+222m--160.75177mECRGhazipur, Uttar Pradesh
5/==/DLNDildarnagar Junction (2)  10:52 10:54+2110:57 10:59+275m--174.27972mECRDildarnagar, Uttar Pradesh
6/==/BWHBhadaura (2)  11:10 11:05+3311:12 11:07+332m--182.06169mECRGhazipur, Uttar Pradesh
7/==/GMRGahmar (2)  11:22 11:15+3511:24 11:17+382m--190.26268mECRDistt: Ghazipur, Uttar Pradesh
8/==/CSAChausa (2)X  11:32 11:26+4011:34 11:28+462m--199.43068mECRState Highway 14, Bihar
9/==/BXRBuxar (3)XO  11:49 11:50+3111:53 11:52+354 2m11110.49867mECRBuxar, Bihar
10/==/DUREDumraon (3)  12:02+4712:04+502m--1126.76570mECRDumraon, Bihar
11/==/TWGTwining GanjX12:14 12:11+5512:16 12:13+1:032m--1134.37270mECRArrah Buxar Rd, Bihar
12/==/RPRRaghunathpur (4)  12:18 12:20+1:0612:20 12:22+1:172m--1142.78869mECRRaghunathpur, Bihar
13/==/BYNBanahi (2)X  12:28+1:2112:30+1:222m--1151.55167mECRBanahi, Bihar
14/==/BEABihiya (3)X  12:37+1:1912:39+1:222m--1157.47767mECRBehea, Bihar
15/==/KRSKarisath (2)X  12:48+1:3512:50+1:432m--1168.96065mECRKarisath, Bihar
16/==/ARAAra Junction (3)  13:00+1:2413:05+1:295m--1178.97463mECRDistt: Bhojpur Ph 06182-233411, Bihar
17/==/KUAKulharia (2)  13:13+1:5913:14+2:051m--1188.84361mECRChandi Sahar Rd, Bihar
18/==/KWRKoelwar (2)X  13:19+2813:21+282m--1192.31865mECRNational Highway 30, Bihar
19/==/VHCHChakki Block Cabin  13:29+1:5113:31+1:492m--1194.85463mECRNational Highway 30, Bihar
20/==/BTABihta (2)X  13:38+1:5813:40+2:012m--1201.14262mECRDistt: Patna, Bihar
21/==/SDESadisopur (2)X  13:46-13:48-2m--1205.36164mECRSadisopur, Bihar
22/==/NEONeora (2)XO  13:55+2:0913:57+2:102m--1212.4761mECRNational Highway 98, Bihar
23/==/DNRDanapur (5)XO  14:50+1:2315:00+1:2410m--1218.45158mECRKhagaul, Bihar
24/==/PWSPhulwari Sharif (3)X  15:04+1:4315:06+1:472m--1221.8958mECRPatna, Bihar
25/==/PNBEPatna Junction (10)X  15:45+5515:55 16:05+5110 20m11227.82257mECRPatna 800001, Bihar
26/==/RJPBRajendra Nagar Bihar (4)  16:02 16:12+5516:04 16:14+562m--1230.45155mECRPatna 800001, Bihar
27/==/GZHGulzarbagh (3)X  16:09 16:19+1:1516:11 16:21+1:162m--1234.62055mECRPatna, Bihar
28/==/PNCPatna Saheb (3)X  16:20 16:30+1:1316:22 16:32+1:152m--1237.73559mECRPatna 800008, Bihar
29/==/FUTFatwa (6)  16:35 16:53+1:1716:37 16:55+1:352m--1249.92853mECRPatna, Bihar
30/==/HDEHardas Bigha  16:42 17:00-16:44 17:02-2m--1252.27453mECRFatwah, Bihar
31/==/KOOKhusropur (2)  16:49 17:07+1:3516:51 17:09+1:362m--1258.45052mECRPatna, Bihar
32/==/KWOKarauta (2)X  17:16+1:3817:18+1:412m--1264.24552mECRKarauta, Bihar
33/==/BKPBakhtiyarpur Junction (5)X  17:30+1:3517:32+1:422m--1273.29051mECRPatna, Bihar
34/==/ATLAthmal Gola (2)  17:38+1:5217:40+1:532m--1282.26852mECRPatna, Bihar
35/==/BARHBarh (3)  17:48+1:4617:50+1:502m--1291.36149mECRBarh, Bihar
36/==/PHKPunarakh (2)•XO  18:00+1:5818:02+1:592m--1301.51051mECRPunarakh, Bihar
37/==/MORMor (2)X  18:51+1:2018:53+1:222m--1309.73746mECRMor, Bihar
38/==/MKAMokama Junction (4)  19:05+1:1219:10+1:115m--1317.06348mECRPatna, Bihar
39/==/HTZHathidah Junction (2)X  19:18+1:1619:20+1:162m11325.44350mECRMusahari, Bihar
40/==/BRYABarhiya (3)X  19:33+1:2119:35+1:212m--1334.87047mECRBarahiya, Bihar
41/==/LKRLuckeesarai Junction (2)XO  19:48+1:2519:50+1:252m--1349.9152mECRLakhisarai, Bihar
42/==/KIULKiul Junction (5)  20:45+4320:55+4510m51351.25953mECRDist. Lakhisarai, Bihar
43!==|KJHKajra (2)  21:11+5921:13+582m--1367.04950mERLakhisarai District, Bihar
44|==|AHAAbhaipur (3)  21:22+5921:24+592m--1374.25552mERAbhaipur, Bihar
45|==|DRHDharhara (2)  21:35+1:0021:37+592m--1384.24755mERDharhara, Bihar
46|==|DRTPDasharathpur (2)21:44+1:0021:46+1:012m--1389.72748mERDharhara, Bihar
47|-=|JMPJamalpur Junction (4)  22:00+5922:10+1:0110m--1396.14759mERDist: Munger 06344-243101, Bihar
48|-=|RPURRatanpur (2)  22:18+1:0322:20+1:032m--1402.34246mERRatanpur Railway Station, Bihar
49|==|BUPBariarpur (3)X  22:27+1:0322:29+1:022m--1407.25442mERMunger, Bihar
50|==|SGGSultanGanj (3)  22:49+5922:51+1:012m--1425.14642mERSultanganj, Bihar
51|==|AKNAkbarnagar (3)  23:04+5823:06+582m--1435.24539mERTilakpur, Bihar
52|==|MPYMurarpur (2)  23:13-23:15-2m--1440.54238mERMau, Bihar
53|==|NATNathnagar (2)  23:22+5523:24+572m--1445.41848mERBhagalpur, Bihar
54!==|BGPBhagalpur Junction (6)X  23:40+5423:55+1:0015m21450.15649mERBhagalpur, Bihar
55!==!SBOSabaur (3)X  00:03+1:0100:05+1:022m--2457.65042mERSabour, Bihar
56!==!GGAGhoga (2)  00:20+1:0200:22+1:022m--2470.04942mERGhoga, Bihar
57!==!EKCEkchari (1)X  00:29+1:0600:31+1:062m12475.82037mERNational Highway 80, Bihar
58!==!CLGKahalgaon (2)  00:44+1:0400:46+1:072m12480.14444mERBhagalpur, Bihar
59!==!BKSLBikram Shila (2)  01:01 00:57+1:0701:03 00:58+1:092 1m--2488.22358mERBikram Shila, Bihar
60!==!SVRPShivanarayanpur (2)  01:12 01:07+1:0301:14 01:08+1:042 1m--2491.64447mERShivanarayanpur, Bihar
61!==!PPTPirpainti (2)  01:25 01:20+1:0801:27 01:21+1:102 1m--2500.55653mERBhagalpur, Bihar
62!==!MZCMirza Cheuki (3)  01:36 01:30+1:1201:38 01:32+1:122m32509.03538mERBihar, Bihar
63!==!SBGSahibganj Junction (3)  02:03 01:58+1:0402:13 02:08+1:0810m12524.05038mERSahibganj, Jharkhand
64|==!TLJTaljhari  02:44 02:42+1:1202:46 02:44+1:222m--2552.22538mERTaljhari, Jharkhand
65|==|TPHTinpahar Junction (3)  03:03 03:07+1:2603:05 03:08+1:272 1m22561.83145mERBamangawan, Jharkhand
66|==|BHWBarharwa Junction (3)  03:40+1:1103:45+1:155m22578.56536mERBarharwa, Jharkhand
67%==%KLPKotalpukur (3)X  03:58+1:2404:00+1:242m12592.56540mERKotalpukur, Jharkhand
68%==%PKRPakur (2)  04:11+1:3404:13+1:342m22604.54237mERDist:- Pakur, Jharkhand
69%==%RJGRajgram (3)X  04:28+1:3404:30+1:362m22615.15032mERDist - Birbhum, West Bengal
70%==%BSBRBanshlai Bridge (2)  04:38+2:0104:40+2:042m--2621.84335mERDist - Birbhum, West Bengal
71%==%MRRMurarai (3)  04:47+1:4004:49+1:432m22626.85736mERDist - Birbhum, West Bengal
72%==%CTRChatra (3)X  04:57+1:3304:59+1:332m22634.44742mERDist - Birbhum, West Bengal
73%==%NHTNalhati Junction (4)  05:10+1:4705:12+1:482m22643.02348mERDist - Birbhum, West Bengal
74%==%RPHRampurhat (3)X  05:48+1:3706:03+1:3015m12657.16841mERDIST - Birbhum, West Bengal
75%==%MLVMallarpur (3)  06:14+1:3506:16+1:362m--2669.54946mERDist - Birbhum, West Bengal
76%==%SNTSainthia Junction (4)X  06:35+1:3706:37+1:372m42685.18058mERDist - Birbhum, West Bengal
77%==%AMPAhmadpur Junction (3)  06:47+1:3606:49+1:382m22698.36546mERDist - Birbhum, West Bengal
78%==%PNEPrantik (3)  07:03+1:2507:05+1:252m22713.63248mERDist - Birbhum, West Bengal
79%==%BHPBolpur Shantiniketan (3)  07:13+1:3407:18+1:335m22717.87159mERDist - Birbhum, West Bengal
80%==%GKHGuskara (2)X  07:34+1:4507:36+1:462m12736.73541mERDist - Bardhaman, West Bengal
81/==/BWNBarddhaman Junction (8)XO  08:32+1:2008:56+1:1024m--2769.67034mERDist - Barddhaman, West Bengal
82/==/DAKEDakhineswar (2)  10:12-10:14-2m22858.32310mERDist - 24 paraganas ( North ), West Bengal
83/==/BNXRBidhan Nagar Road (4)  10:38-10:40-2m42867.6138mERKolkata, West Bengal
84/==/SDAHKolkata Sealdah (20)  10:55+1:09-92871.0-8mERPh : 033-23503535 (For North: APC Roy Road) Kolkata 700014, West Bengal
Scroll to Top
Scroll to Bottom


Go to Mobile site